Terminal Aerodrome Forecast
Issued by NWS

Home | Current Version | Previous Version | Text Only | Print | Product List | Glossary On
Versions: 1 2 3 4 5 6 7 8 9 10 11 12 13 14 15 16 17
000
FTUS43 KTOP 231100
TAFMHK
TAF
KMHK 231120Z 2312/2412 14009KT P6SM BKN008 OVC015
     FM231700 14011KT P6SM SHRA BKN015 OVC025
     FM232300 12009KT 4SM RA VCTS BKN007CB OVC025=

USA.gov is the U.S. government's official web portal to all federal, state and local government web resources and services.